1317427225706,0.942588
1317427285706,0.945518
1317427345706,0.947517
1317427405706,0.943612
1317427465706,0.944113
1317427525706,0.952278
1317427585706,0.949724
1317427645706,0.940090
1317427705706,0.943702
1317427765706,0.932588
1317427825706,0.937225
1317427885706,0.936906
1317427945706,0.930496
1317428005706,0.930958
1317428065706,0.935967
1317428125706,0.932688
1317428185706,0.932113
1317428245706,0.933044
1317428305706,0.932556
1317428365706,0.932861
1317428425706,0.930156
1317428485706,0.926338
1317428545706,0.924637
1317428605706,0.925377
1317428665706,0.932328
1317428725706,0.927766
1317428785706,0.929042
1317428845706,0.926624
1317428905706,0.930409
1317428965706,0.924500
1317429025706,0.931531
1317429085706,0.927454
1317429145706,0.930833
1317429205706,0.934250
1317429265706,0.928673
1317429325706,0.931008
1317429385706,0.926053
1317429445706,0.927474
1317429505706,0.927504
1317429565706,0.927203
1317429625706,0.929314
1317429685706,0.931543
1317429745706,0.929441
1317429805706,0.919611
1317429865706,0.928948
1317429925706,0.912414
1317429985706,0.933872
1317430045706,0.916185
1317430105706,0.923514
1317430165706,0.920929
1317430225706,0.923525
1317430285706,0.917204
1317430345706,0.916699
1317430405706,0.918130
1317430465706,0.918254
1317430525706,0.923811
1317430585706,0.921794
1317430645706,0.921844
1317430705706,0.920169
1317430765706,0.923023
1317430825717,0.920517
1317430885717,0.917778
1317430945717,0.920460
1317431005717,0.908327
1317431065717,0.922611
1317431125717,0.923325
1317431185717,0.922155
1317431245717,0.920234
1317431305717,0.922659
1317431365717,0.926947
1317431425717,0.930695
1317431485717,0.926509
1317431545717,0.928061
1317431605717,0.925821
1317431665717,0.921129
1317431725717,0.929989
1317431785717,0.927258
1317431845717,0.922522
1317431905717,0.922824
1317431965717,0.932113
1317432025717,0.923723
1317432085717,0.927935
1317432145717,0.923423
1317432205717,0.913817
1317432265717,0.922326
1317432325717,0.920101
1317432385717,0.928309
1317432445717,0.926403
1317432505717,0.929692
1317432565717,0.912770
1317432625717,0.923307
1317432685717,0.916326
1317432745717,0.930515
1317432805717,0.924762
1317432865717,0.921305
1317432925717,0.917337
1317432985717,0.917677
1317433045717,0.930050
1317433105717,0.930772
1317433165717,0.925800
1317433225717,0.923084
1317433285717,0.921121
1317433345717,0.925553
1317433405717,0.925731
1317433465717,0.920195
1317433525717,0.931437
1317433585717,0.935873
1317433645717,0.931088
1317433705717,0.933552
1317433765717,0.926483
1317433825717,0.932596
1317433885717,0.930283
1317433945717,0.930907
1317434005717,0.926923
1317434065717,0.926550
1317434125717,0.941312
1317434185717,0.933264
1317434245717,0.933800
1317434305717,0.944192
1317434365717,0.928433
1317434425728,0.924269
1317434485728,0.935408
1317434545728,0.933986
1317434605728,0.934283
1317434665728,0.927592
1317434725728,0.931811
1317434785728,0.928292
1317434845728,0.938144
1317434905728,0.932674
1317434965728,0.924762
1317435025728,0.933858
1317435085728,0.935643
1317435145728,0.927027
1317435205728,0.930752
1317435265728,0.932344
1317435325728,0.935104
1317435385728,0.928876
1317435445728,0.925584
1317435505728,0.934012
1317435565728,0.933691
1317435625728,0.930111
1317435685728,0.928100
1317435745728,0.939194
1317435805728,0.930498
1317435865728,0.930932
1317435925728,0.930133
1317435985728,0.928016
1317436045728,0.935582
1317436105728,0.930433
1317436165728,0.930248
1317436225728,0.931984
1317436285728,0.932050
1317436345728,0.927577
1317436405728,0.925478
1317436465728,0.914187
1317436525728,0.933926
1317436585728,0.927800
1317436645728,0.928148
1317436705728,0.923459
1317436765728,0.922411
1317436825728,0.924252
1317436885728,0.927772
1317436945728,0.924902
1317437005728,0.926710
1317437065728,0.926008
1317437125728,0.928078
1317437185728,0.925278
1317437245728,0.932781
1317437305728,0.932209
1317437365728,0.927432
1317437425728,0.930936
1317437485728,0.935987
1317437545728,0.940353
1317437605728,0.934783
1317437665728,0.930276
1317437725728,0.943840
1317437785728,0.933899
1317437845728,0.940080
1317437905728,0.936976
1317437965728,0.935739
1317438025739,0.938838
1317438085739,0.945657
1317438145739,0.937551
1317438205739,0.929464
1317438265739,0.940802
1317438325739,0.946862
1317438385739,0.937542
1317438445739,0.936845
1317438505739,0.937344
1317438565739,0.931140
1317438625739,0.939844
1317438685739,0.935208
1317438745739,0.935311
1317438805739,0.931751
1317438865739,0.937928
1317438925739,0.929608
1317438985739,0.930240
1317439045739,0.931409
1317439105739,0.934408
1317439165739,0.936531
1317439225739,0.934316
1317439285739,0.938737
1317439345739,0.936989
1317439405739,0.932525
1317439465739,0.942324
1317439525739,0.935989
1317439585739,0.932540
1317439645739,0.934870
1317439705739,0.935318
1317439765739,0.934926
1317439825739,0.945928
1317439885739,0.936747
1317439945739,0.948351
1317440005739,0.944984
1317440065739,0.945783
1317440125739,0.948373
1317440185739,0.951539
1317440245739,0.939039
1317440305739,0.937381
1317440365739,0.942415
1317440425739,0.929773
1317440485739,0.931513
1317440545739,0.930527
1317440605739,0.938618
1317440665739,0.929766
1317440725739,0.932701
1317440785739,0.928915
1317440845739,0.927950
1317440905739,0.939047
1317440965739,0.936998
1317441025739,0.938041
1317441085739,0.937918
1317441145739,0.938678
1317441205739,0.946558
1317441265739,0.949052
1317441325739,0.961674
1317441385739,0.959118
1317441445739,0.963386
1317441505739,0.953925
1317441565739,0.960602
1317441625749,0.967359
1317441685749,0.965997
1317441745749,0.963779
1317441805749,0.957179
1317441865749,0.967617
1317441925749,0.958778
1317441985749,0.951248
1317442045749,0.962940
1317442105749,0.956275
1317442165749,0.942737
1317442225749,0.946895
1317442285749,0.934839
1317442345749,0.937854
1317442405749,0.934724
1317442465749,0.934561
1317442525749,0.934557
1317442585749,0.929395
1317442645749,0.926718
1317442705749,0.934992
1317442765749,0.929918
1317442825749,0.924565
1317442885749,0.926543
1317442945749,0.922291
1317443005749,0.926360
1317443065749,0.926801
1317443125749,0.929128
1317443185749,0.921355
1317443245749,0.926930
1317443305749,0.918215
1317443365749,0.924205
1317443425749,0.914936
1317443485749,0.921332
1317443545749,0.919852
1317443605749,0.915017
1317443665749,0.923050
1317443725749,0.908646
1317443785749,0.919150
1317443845749,0.920609
1317443905749,0.922815
1317443965749,0.921170
1317444025749,0.917933
1317444085749,0.925249
1317444145749,0.916900
1317444205749,0.918912
1317444265749,0.922571
1317444325749,0.919583
1317444385749,0.928723
1317444445749,0.946219
1317444505749,0.949223
1317444565749,0.955470
1317444625749,0.969134
1317444685749,1.00470
1317444745749,1.00215
1317444805749,0.989814
1317444865749,0.987964
1317444925749,0.969246
1317444985749,0.960863
1317445045749,0.951086
1317445105749,0.945052
1317445165749,0.940248
1317445225760,0.936473
1317445285760,0.929867
1317445345760,0.936065
1317445405760,0.931063
1317445465760,0.929433
1317445525760,0.934846
1317445585760,0.919357
1317445645760,0.927380
1317445705760,0.933009
1317445765760,0.936883
1317445825760,0.927508
1317445885760,0.933476
1317445945760,0.930795
1317446005760,0.930891
1317446065760,0.934089
1317446125760,0.933003
1317446185760,0.931993
1317446245760,0.929971
1317446305760,0.938448
1317446365760,0.934975
1317446425760,0.930695
1317446485760,0.931431
1317446545760,0.927473
1317446605760,0.925245
1317446665760,0.924058
1317446725760,0.932468
1317446785760,0.923579
1317446845760,0.925167
1317446905760,0.926731
1317446965760,0.925280
1317447025760,0.927242
1317447085760,0.922217
1317447145760,0.926529
1317447205760,0.928892
1317447265760,0.928881
1317447325760,0.933364
1317447385760,0.931559
1317447445760,0.929987
1317447505760,0.939938
1317447565760,0.937286
1317447625760,0.924814
1317447685760,0.928136
1317447745760,0.940967
1317447805760,0.947863
1317447865760,0.924808
1317447925760,0.940517
1317447985760,0.938899
1317448045760,0.936040
1317448105760,0.925941
1317448165760,0.925329
1317448225760,0.934660
1317448285760,0.929678
1317448345760,0.937225
1317448405760,0.933465
1317448465760,0.928273
1317448525760,0.927618
1317448585760,0.921616
1317448645760,0.931064
1317448705760,0.922029
1317448765760,0.928087
1317448825770,0.927820
1317448885770,0.934545
1317448945770,0.927784
1317460825802,1.05231
1317460885801,1.05291
1317460945801,1.05234
1317461005801,1.04830
1317461065801,1.06737
1317461125801,1.06675
1317461185801,1.05769
1317461245801,1.06705
1317461305801,1.07789
1317461365801,1.08478
1317461425801,1.09264
1317461485801,1.10472
1317461545801,1.10658
1317461605801,1.11097
1317461665801,1.12636
1317461725801,1.13308
1317461785801,1.15875
1317461845801,1.15185
1317461905802,1.15948
1317461965802,1.16359
1317462025802,1.16759
1317462085802,1.17383
1317462145802,1.15908
1317462205801,1.17370
1317462265801,1.19531
1317462325801,1.20462
1317462385801,1.21603
1317462445801,1.23988
1317462505801,1.24077
1317462565801,1.23686
1317462625801,1.23780
1317462685801,1.25036
1317462745801,1.26179
1317462805801,1.28110
1317462865801,1.29975
1317462925801,1.32176
1317462985801,1.34273
1317463045801,1.34301
1317463105801,1.36515
1317463165801,1.37817
1317463225813,1.38336
1317463285813,1.38770
1317463345813,1.37789
1317463405813,1.36885
1317463465813,1.38210
1317463525813,1.36499
1317463585813,1.35653
1317463645813,1.36239
1317463705813,1.35126
1317463765813,1.36191
1317463825813,1.35016
1317463885813,1.33527
1317463945813,1.34608
1317464005813,1.35079
1317464065813,1.33922
1317464125813,1.33123
1317464185813,1.31483
1317464245813,1.30286
1317464305813,1.30185
1317464365813,1.29736
1317464425813,1.28687
1317464485813,1.26867
1317464545813,1.25695
1317464605813,1.23484
1317464665813,1.21943
1317464725813,1.20392
1317464785813,1.18714
1317464845813,1.18557
1317464905813,1.16978
1317464965813,1.15951
1317465025813,1.13653
1317465085813,1.13377
1317465145813,1.12056
1317465205813,1.11577
1317465265813,1.11080
1317465325813,1.10171
1317465385813,1.09133
1317465445813,1.08849
1317465505813,1.07775
1317465565813,1.06287
1317465625813,1.07150
1317465685813,1.05520
1317465745813,1.04979
1317465805813,1.03898
1317465865813,1.04192
1317465925813,1.03646
1317465985813,1.02854
1317466045813,1.02287
1317466105813,1.01995
1317466165813,1.01086
1317466225813,1.00744
1317466285813,1.01026
1317466345813,1.00281
1317466405813,1.00852
1317466465813,1.00595
1317466525813,0.999587
1317466585813,0.999763
1317466645813,0.990704
1317466705813,0.995173
1317466765813,0.985247
1317466825824,0.982191
1317466885824,0.989406
1317466945824,0.993132
1317467005824,0.987540
1317467065824,0.993083
1317467125824,0.998972
1317467185824,1.00480
1317467245824,0.998177
1317467305824,0.990120
1317467365824,0.990598
1317467425824,0.980119
1317467485824,0.983022
1317467545824,0.973049
1317467605824,0.976925
1317467665824,0.976660
1317467725825,0.976196
1317467785825,0.967780
1317467845824,0.967183
1317467905824,0.968219
1317467965824,0.959236
1317468025824,0.956094
1317468085824,0.951767
1317468145824,0.953829
1317468205824,0.962843
1317468265824,0.965015
1317468325824,0.966551
1317468385824,0.970503
1317468445824,0.970369
1317468505824,0.967941
1317468565824,0.958663
1317468625824,0.948787
1317468685824,0.950746
1317468745824,0.957274
1317468805824,0.951121
1317468865824,0.949188
1317468925824,0.945714
1317468985824,0.938116
1317469045825,0.942649
1317469105825,0.952189
1317469165825,0.939601
1317469225824,0.933056
1317469285824,0.942184
1317469345824,0.937814
1317469405824,0.937308
1317469465824,0.932620
1317469525824,0.935998
1317469585824,0.924846
1317469645824,0.935438
1317469705824,0.933658
1317469765824,0.926832
1317469825824,0.934742
1317469885824,0.933881
1317469945824,0.938615
1317470005824,0.928792
1317470065824,0.922445
1317470125824,0.934228
1317470185824,0.934725
1317470245824,0.935171
1317470305824,0.921007
1317470365824,0.928803
1317470425836,0.925151
1317470485836,0.923614
1317470545836,0.927182
1317470605836,0.925935
1317470665836,0.924037
1317470725836,0.924209
1317470785836,0.931030
1317470845836,0.922295
1317470905836,0.919747
1317470965836,0.919993
1317471025836,0.918905
1317471085836,0.927873
1317471145836,0.924752
1317471205836,0.922560
1317471265836,0.917302
1317471325836,0.917719
1317471385836,0.923823
1317471445836,0.927937
1317471505836,0.927350
1317471565836,0.924576
1317471625836,0.911646
1317471685836,0.921312
1317471745836,0.908754
1317471805836,0.915728
1317471865836,0.914874
1317471925836,0.924983
1317471985836,0.917058
1317472045836,0.922226
1317472105836,0.924917
1317472165836,0.920017
1317472225836,0.920348
1317472285836,0.926239
1317472345836,0.927529
1317472405836,0.923013
1317472465836,0.923183
1317472525836,0.927756
1317472585836,0.926308
1317472645836,0.923708
1317472705836,0.939617
1317472765836,0.935616
1317472825836,0.944890
1317472885836,0.941696
1317472945836,0.932593
1317473005836,0.934363
1317473065836,0.931188
1317473125836,0.938449
1317473185836,0.933481
1317473245836,0.931474
1317473305836,0.938069
1317473365836,0.926481
1317473425836,0.932682
1317473485836,0.932051
1317473545836,0.925179
1317473605836,0.926731
1317473665836,0.930050
1317473725836,0.923397
1317473785836,0.921540
1317473845836,0.922490
1317473905836,0.924196
1317473965836,0.921237
1317474025848,0.924699
1317474085848,0.930342
1317474145848,0.927072
1317474205848,0.917401
1317474265848,0.930153
1317474325848,0.924806
1317474385848,0.927345
1317474445848,0.921960
1317474505848,0.919644
1317474565848,0.929271
1317474625848,0.920713
1317474685848,0.922696
1317474745848,0.917583
1317474805848,0.926903
1317474865848,0.926890
1317474925848,0.921468
1317474985848,0.916459
1317475045848,0.923755
1317475105848,0.924708
1317475165848,0.921016
1317475225848,0.914386
1317475285848,0.932019
1317475345848,0.926603
1317475405848,0.922645
1317475465848,0.923021
1317475525848,0.920848
1317475585848,0.922354
1317475645848,0.920337
1317475705848,0.923645
1317475765848,0.919138
1317475825848,0.926367
1317475885848,0.919094
1317475945848,0.924455
1317476005848,0.922127
1317476065848,0.922460
1317476125848,0.917694
1317476185848,0.923211
1317476245848,0.917431
1317476305848,0.915406
1317476365848,0.916283
1317476425848,0.922440
1317476485848,0.922757
1317476545848,0.919520
1317476605848,0.920464
1317476665848,0.918358
1317476725848,0.922902
1317476785848,0.923783
1317476845848,0.929831
1317476905848,0.923779
1317476965848,0.930333
1317477025848,0.923583
1317477085848,0.924487
1317477145848,0.918767
1317477205848,0.922637
1317477265848,0.930490
1317477325848,0.931039
1317477385848,0.931332
1317477445848,0.924200
1317477505848,0.933765
1317477565848,0.933864
1317477625861,0.934880
1317477685861,0.922001
1317477745861,0.923096
1317477805861,0.925260
1317477865861,0.925906
1317477925861,0.930077
1317477985861,0.924368
1317478045861,0.929685
1317478105861,0.931671
1317478165861,0.932010
1317478225861,0.929048
1317478285861,0.928248
1317478345861,0.927565
1317478405861,0.931273
1317478465861,0.933022
1317478525861,0.927451
1317478585861,0.928329
1317478645861,0.936292
1317478705861,0.932189
1317478765861,0.927463
1317478825861,0.927007
1317478885861,0.921160
1317478945861,0.923684
1317479005861,0.924623
1317479065861,0.926210
1317479125861,0.928912
1317479185861,0.931048
1317479245861,0.931009
1317479305861,0.936854
1317479365861,0.934038
1317479425861,0.932242
1317479485861,0.935595
1317479545861,0.935087
1317479605861,0.935027
1317479665861,0.935853
1317479725861,0.942873
1317479785861,0.948296
1317479845861,0.948438
1317479905861,0.946190
1317479965861,0.933122
1317480025861,0.938442
1317480085861,0.949408
1317480145861,0.933310
1317480205861,0.944244
1317480265861,0.938124
1317480325861,0.937294
1317480385861,0.936041
1317480445861,0.938213
1317480505861,0.931788
1317480565861,0.935268
1317480625861,0.931643
1317480685861,0.931722
1317480745861,0.931373
1317480805861,0.928690
1317480865861,0.940047
1317480925861,0.932684
1317480985861,0.934924
1317481045861,0.933453
1317481105861,0.932039
1317481165861,0.930068
1317481225873,0.935313
1317481285873,0.937514
1317481345873,0.935930
1317481405873,0.932812
1317481465873,0.926597
1317481525873,0.926228
1317481585873,0.928911
1317481645873,0.933528
1317481705873,0.928354
1317481765873,0.933428
1317481825873,0.942088
1317481885873,0.929715
1317481945873,0.928035
1317482005873,0.930508
1317482065873,0.938121
1317482125873,0.940202
1317482185873,0.937177
1317482245873,0.944512
1317482305873,0.938350
1317482365873,0.933845
1317482425873,0.947829
1317482485873,0.940204
1317482545873,0.934810
1317482605873,0.941743
1317482665873,0.932684
1317482725873,0.932710
1317482785873,0.934030
1317482845873,0.940363
1317482905873,0.931802
1317482965873,0.934536
1317483025873,0.934153
1317483085873,0.933107
1317483145873,0.935822
1317483205873,0.922397
1317483265873,0.925359
1317483325873,0.936025
1317483385873,0.932886
1317483445873,0.935951
1317483505873,0.931986
1317483565873,0.938188
1317483625873,0.931400
1317483685873,0.933785
1317483745873,0.941147
1317483805873,0.938353
1317483865873,0.939520
1317483925873,0.940394
1317483985873,0.944048
1317484045873,0.947670
1317484105873,0.941531
1317484165873,0.941730
1317484225873,0.943224
1317484285873,0.949740
1317484345873,0.936966
1317484405873,0.950522
1317484465873,0.944679
1317484525873,0.933932
1317484585873,0.939591
1317484645873,0.937100
1317484705873,0.942811
1317484765873,0.942894
1317484825886,0.945030
1317484885886,0.945360
1317484945886,0.937685
1317485005886,0.940660
1317485065886,0.955072
1317485125886,0.940930
1317485185886,0.941103
1317485245886,0.949864
1317485305886,0.938711
1317485365886,0.947880
1317485425886,0.936949
1317485485886,0.937382
1317485545886,0.947683
1317485605886,0.943198
1317485665886,0.940683
1317485725886,0.953843
1317485785886,0.950730
1317485845886,0.944485
1317485905886,0.944171
1317485965886,0.939651
1317486025886,0.942255
1317486085886,0.933742
1317486145886,0.935283
1317486205886,0.931983
1317486265886,0.930897
1317486325886,0.935605
1317486385886,0.937710
1317486445886,0.934228
1317486505886,0.934832
1317486565886,0.939161
1317486625886,0.947464
1317486685886,0.939707
1317486745886,0.944686
1317486805886,0.947833
1317486865886,0.944906
1317486925886,0.948619
1317486985886,0.952387
1317487045886,0.951042
1317487105886,0.951306
1317487165886,0.951301
1317487225886,0.946742
1317487285886,0.941604
1317487345886,0.943731
1317487405886,0.941573
1317487465886,0.944383
1317487525886,0.941663
1317487585886,0.935097
1317487645886,0.933455
1317487705886,0.948804
1317487765886,0.944038
1317487825886,0.934574
1317487885886,0.944129
1317487945886,0.945288
1317488005886,0.938688
1317488065886,0.944991
1317488125886,0.940603
1317488185886,0.936867
1317488245886,0.923586
1317488305886,0.934164
1317488365886,0.935468
1317488425899,0.932202
1317488485899,0.941531
1317488545899,0.937727
1317488605899,0.937009
1317488665899,0.940086
1317488725899,0.941864
1317488785899,0.949349
1317488845899,0.939947
1317488905899,0.945492
1317488965899,0.950651
1317489025899,0.940075
1317489085899,0.941625
1317489145899,0.940683
1317489205899,0.947470
1317489265899,0.947577
1317489325899,0.940764
1317489385899,0.943794
1317489445899,0.949945
1317489505899,0.939380
1317489565899,0.937727
1317489625899,0.938706
1317489685899,0.943607
1317489745899,0.936556
1317489805899,0.941919
1317489865899,0.944519
1317489925899,0.945236
1317489985899,0.941762
1317490045899,0.942363
1317490105899,0.939008
1317490165899,0.941492
1317490225899,0.943527
1317490285899,0.938241
1317490345899,0.937208
1317490405899,0.934469
1317490465899,0.939260
1317490525899,0.937409
1317490585899,0.947446
1317490645899,0.948801
1317490705899,0.938556
1317490765899,0.942104
1317490825899,0.942627
1317490885899,0.949327
1317490945899,0.944188
1317491005899,0.961811
1317491065899,0.952302
1317491125899,0.958324
1317491185899,0.954480
1317491245899,0.963151
1317491305899,0.951281
1317491365899,0.960824
1317491425899,0.954089
1317491485899,0.947748
1317491545899,0.952531
1317491605899,0.948455
1317491665899,0.962992
1317491725899,0.964695
1317491785899,0.952995
1317491845899,0.953620
1317491905899,0.947550
1317491965899,0.957004
1317492025912,0.945236
1317492085912,0.944438
1317492145912,0.946588
1317492205912,0.947839
1317492265912,0.944329
1317492325912,0.950084
1317492385912,0.947271
1317492445912,0.943134
1317492505912,0.950148
1317492565912,0.941003
1317492625912,0.950615
1317492685912,0.940384
1317492745912,0.942655
1317492805912,0.942214
1317492865912,0.937945
1317492925912,0.941226
1317492985912,0.942407
1317493045912,0.949504
1317493105912,0.950003
1317493165912,0.949708
1317493225912,0.945557
1317493285912,0.951065
1317493345912,0.949242
1317493405912,0.952789
1317493465912,0.951885
1317493525912,0.955716
1317493585912,0.945641
1317493645912,0.954381
1317493705912,0.948903
1317493765912,0.952030
1317493825912,0.948826
1317493885912,0.944344
1317493945912,0.950567
1317494005912,0.949126
1317494065912,0.950373
1317494125912,0.943838
1317494185912,0.941728
1317494245912,0.943138
1317494305912,0.951863
1317494365912,0.938662
1317494425912,0.943954
1317494485912,0.945325
1317494545912,0.943417
1317494605912,0.947118
1317494665912,0.947977
1317494725912,0.947818
1317494785912,0.951618
1317494845912,0.947791
1317494905912,0.936194
1317494965912,0.948283
1317495025912,0.935021
1317495085912,0.941285
1317495145912,0.937733
1317495205912,0.941723
1317495265912,0.952191
1317495325912,0.946292
1317495385912,0.948089
1317495445912,0.944548
1317495505912,0.934662
1317495565912,0.951176
1317495625925,0.955099
1317495685925,0.937382
1317495745925,0.948015
1317495805925,0.945472
1317495865925,0.944506
1317495925925,0.943976
1317495985925,0.944917
1317496045925,0.943634
1317496105925,0.952560
1317496165925,0.938737
1317496225925,0.947309
1317496285925,0.937853
1317496345925,0.941095
1317496405925,0.942584
1317496465925,0.945507
1317496525925,0.943334
1317496585925,0.936572
1317496645925,0.951710
1317496705925,0.935275
1317496765925,0.947458
1317496825925,0.938428
1317496885925,0.934982
1317496945925,0.937398
1317497005925,0.942543
1317497065925,0.946083
1317497125925,0.951551
1317497185925,0.945298
1317497245925,0.938861
1317497305925,0.943413
1317497365925,0.936451
1317497425925,0.941967
1317497485925,0.940296
1317497545925,0.941876
1317497605925,0.939345
1317497665925,0.936621
1317497725925,0.942663
1317497785925,0.940276
1317497845925,0.940538
1317497905925,0.932851
1317497965925,0.952825
1317498025925,0.930701
1317498085925,0.942217
1317498145925,0.943260
1317498205925,0.950954
1317498265925,0.940999
1317498325925,0.938383
1317498385925,0.940129
1317498445925,0.946151
1317498505925,0.941873
1317498565925,0.944800
1317498625925,0.939439
1317498685925,0.943770
1317498745925,0.939829
1317498805925,0.939166
1317498865925,0.942002
1317498925925,0.940767
1317498985925,0.943640
1317499045925,0.945933
1317499105925,0.946053
1317499165925,0.944141
1317499225937,0.950234
1317499285937,0.939569
1317499345937,0.941954
1317499405937,0.942052
1317499465937,0.947624
1317499525937,0.942877
1317499585937,0.955848
1317499645937,0.940537
1317499705937,0.950547
1317499765937,0.945792
1317499825937,0.938199
1317499885937,0.947096
1317499945937,0.944772
1317500005937,0.943355
1317500065937,0.943767
1317500125937,0.947031
1317500185937,0.937881
1317500245937,0.941188
1317500305937,0.953855
1317500365937,0.942948
1317500425937,0.942448
1317500485937,0.941864
1317500545937,0.942263
1317500605937,0.945429
1317500665937,0.942897
1317500725937,0.948931
1317500785937,0.943988
1317500845937,0.953894
1317500905937,0.954359
1317500965937,0.956205
1317501025937,0.958024
1317501085937,0.964978
1317501145937,0.963578
1317501205937,0.957276
1317501265937,0.962413
1317501325937,0.960042
1317501385937,0.954658
1317501445937,0.953330
1317501505937,0.956439
1317501565937,0.959080
1317501625937,0.959335
1317501685937,0.953888
1317501745937,0.956951
1317501805937,0.953122